Regional Weather Roundup
Issued by NWS

Home | Current Version | Previous Version | Graphics & Text | Print | Product List | Glossary On
Versions: 1 2 3 4 5 6 7 8 9 10 11 12 13 14 15 16 17 18 19 20 21 22 23 24 25 26 27 28 29 30 31 32 33 34 35 36 37 38 39 40 41 42 43 44 45 46 47 48 49 50
000
ASUS43 KLSX 180959
RWRMO

WEATHER SUMMARY FOR MISSOURI
NATIONAL WEATHER SERVICE SPRINGFIELD MO
500 AM CDT SAT APR 18 2015

NOTE: "FAIR" INDICATES FEW OR NO CLOUDS BELOW 12,000 FEET WITH NO
       SIGNIFICANT WEATHER AND/OR OBSTRUCTIONS TO VISIBILITY.
       CURRENT SKY AND/OR WEATHER CONDITIONS ARE NOT AVAILABLE FOR
       CHILLICOTHE AND FARMINGTON.

MOZ001>031-035>038-043-044-053-054-181100-
...NORTHERN AND WESTERN MISSOURI...

CITY           SKY/WX    TMP DP  RH WIND       PRES   REMARKS
KANSAS CTY INT CLOUDY    63  56  78 E8        29.92F
KANSAS C DTWN  MOCLDY    62  56  80 NE3       29.91F
LEE`S SUMMIT   MOCLDY    60  57  89 E6        29.93F
ST JOSEPH      CLOUDY    61  56  83 CALM      29.92F
CHILLICOTHE      N/A     61  59  93 CALM      29.95F
KIRKSVILLE     CLOUDY    61  55  81 E5        29.98F

$$
MOZ066>068-077>081-088>096-101>105-181100-
...SOUTHWEST MISSOURI...

CITY           SKY/WX    TMP DP  RH WIND       PRES   REMARKS
SPRINGFIELD    CLOUDY    62  58  86 SE9       29.96F
JOPLIN         CLOUDY    63  59  87 SE7       29.93F

$$
MOZ032>034-039>042-045>050-055>058-069>072-181100-
...CENTRAL MISSOURI...

CITY           SKY/WX    TMP DP  RH WIND       PRES   REMARKS
COLUMBIA       PTCLDY    62  57  83 SE8       29.97F
JEFFERSON CITY PTCLDY    64  56  75 E7        29.97F
ROLLA          CLOUDY    60  58  92 SE8       29.98S
SEDALIA        PTCLDY    60  55  83 S8        29.95F
OSAGE BEACH    CLOUDY    63  55  77 SE3       29.96F

$$
MOZ051-052-059>065-181100-
...EAST CENTRAL MISSOURI...

CITY           SKY/WX    TMP DP  RH WIND       PRES   REMARKS
ST LOUIS INTL  PTCLDY    61  55  81 CALM      30.00F
SPIRIT OF STL  PTCLDY    55  53  93 CALM      29.99S FOG
ST CHARLES     PTCLDY    55  52  89 E5        29.99F FOG

$$
MOZ072>076-082>087-097>100-106>115-181100-
...SOUTH CENTRAL AND SOUTHEAST MISSOURI...

CITY           SKY/WX    TMP DP  RH WIND       PRES   REMARKS
CAPE GIRARDEAU FOG       57  57 100 CALM      30.01R VSB 1/4
FARMINGTON     CLOUDY    57  55  94 CALM      30.04F
POPLAR BLUFF   CLOUDY    57  54  89 CALM      30.00R
WEST PLAINS    CLOUDY    63  61  93 S6        30.00F FOG

$$


USA.gov is the U.S. government's official web portal to all federal, state and local government web resources and services.